Vertical_Velocity
-2 -2 -2 -2 -2 -2 -2 -2 -3 -3 -3 -3 -3 -3 -3 -2 -2 -2 -2 -2 -2 -2 -2 -1 -1 -1 -2 -2 -2 -2 -2 -2 -2 -2 -2 -2 -2 -2 -2 -1 -1 -1 -1 -1 -1 -1 -1 -1 -0 -0 0 0 0 -0 -1 -2 -1 -1 -1 -1 -0 -0 0 0 -0 -0 -1 -1 -1
-2 -2 -2 -2 -2 -2 -2 -2 -2 -3 -3 -3 -3 -3 -3 -2 -2 -2 -2 -2 -2 -2 -2 -2 -2 -2 -2 -2 -3 -3 -3 -2 -2 -2 -2 -2 -2 -2 -2 -1 -1 -1 -1 -1 -1 -1 -1 -1 -0 -0 0 0 0 -0 -1 -2 -1 -1 -1 -1 -0 -0 0 1 -0 -0 -1 -1 -1
-2 -2 -2 -1 -2 -2 -2 -2 -2 -2 -2 -3 -3 -3 -2 -2 -2 -1 -1 -2 -2 -3 -3 -2 -2 -2 -2 -2 -3 -3 -3 -3 -2 -2 -2 -2 -2 -2 -2 -1 -1 -1 -1 -2 -2 -2 -1 -1 -0 0 1 1 1 0 -1 -2 -2 -1 -1 -1 -1 0 1 1 -0 -0 -1 -0 -1
-2 -2 -1 -1 -1 -1 -1 -1 -1 -1 -1 -1 -2 -2 -2 -2 -2 -1 -1 -2 -2 -3 -3 -3 -3 -2 -2 -2 -2 -3 -3 -4 -3 -3 -2 -2 -2 -2 -2 -1 -1 -1 -2 -2 -2 -2 -2 -1 -0 1 1 1 1 0 -1 -2 -2 -2 -1 -1 -1 0 1 0 -0 -0 -0 -0 -0
-1 -1 -1 -1 -1 -1 -1 -1 -1 -1 -1 -1 -2 -2 -2 -2 -2 -1 -2 -2 -2 -2 -2 -2 -2 -2 -2 -2 -2 -2 -3 -4 -4 -4 -3 -2 -2 -2 -2 -2 -1 -1 -2 -2 -2 -3 -2 -1 -0 1 1 1 1 0 -1 -2 -2 -2 -2 -1 -0 0 1 1 0 0 0 0 -0
-1 -1 -1 -1 -1 -1 -1 -2 -1 -1 -1 -1 -2 -2 -2 -2 -2 -2 -2 -2 -2 -2 -2 -2 -2 -2 -2 -1 -1 -1 -2 -3 -4 -4 -4 -3 -3 -2 -2 -2 -1 -1 -2 -2 -2 -3 -3 -2 -1 0 1 1 1 0 -1 -1 -1 -1 -1 -1 -0 0 1 1 1 1 1 1 0
-1 -1 -1 -1 -1 -1 -1 -2 -1 -1 -1 -1 -1 -2 -2 -2 -2 -1 -1 -1 -2 -2 -1 -1 -1 -1 -1 -1 -1 -1 -1 -2 -3 -3 -4 -3 -3 -2 -2 -1 -1 -2 -2 -2 -3 -3 -3 -2 -1 -0 0 1 1 1 -0 -1 -1 -1 -0 -0 -1 -0 1 1 1 1 1 1 1
-1 -1 -0 -1 -1 -1 -1 -2 -2 -1 -1 -1 -1 -2 -2 -2 -1 -1 -1 -1 -1 -1 -1 -1 -1 -1 -1 -1 -0 -0 -1 -1 -2 -3 -3 -3 -3 -2 -2 -1 -1 -2 -2 -3 -3 -3 -4 -4 -2 -1 -0 1 1 1 0 -0 -0 -0 0 0 -0 -0 1 1 1 1 1 1 1
-1 -1 -1 -1 -1 -1 -1 -1 -1 -1 -1 -1 -1 -2 -2 -2 -2 -1 -1 -1 -1 -1 -1 -1 -1 -1 -1 -1 -1 -1 -1 -1 -1 -2 -3 -3 -3 -2 -2 -1 -1 -2 -2 -3 -3 -4 -4 -4 -3 -2 -0 1 1 1 1 0 0 1 1 1 1 1 1 1 1 1 1 2 2
-1 -1 -1 -1 -1 -1 -0 -1 -1 -1 -1 -1 -1 -1 -1 -2 -1 -1 -1 -0 -1 -1 -2 -2 -1 -1 -1 -1 -1 -1 -1 -1 -1 -1 -2 -3 -2 -2 -2 -1 -1 -1 -2 -3 -3 -4 -4 -4 -3 -2 -1 -1 0 1 1 1 1 1 2 2 2 2 2 1 1 1 2 2 2
-1 -1 -1 -1 -1 -1 -0 -0 -1 -1 -1 -1 -1 -1 -1 -1 -1 -1 -0 -0 -0 -1 -1 -2 -1 -1 -1 -1 -1 -1 -1 -1 -1 -1 -2 -2 -2 -2 -2 -1 -1 -1 -2 -2 -3 -4 -4 -4 -3 -3 -3 -2 -1 -0 1 1 2 3 3 3 3 3 2 1 1 1 2 2 2
-1 -2 -2 -1 -1 -1 -1 -1 -1 -1 -1 -1 -1 -1 -0 -1 -0 -0 -0 -0 -0 -0 -1 -2 -2 -2 -1 -1 -1 -1 -1 -1 -1 -1 -1 -2 -2 -2 -1 -1 -1 -1 -2 -2 -3 -3 -3 -3 -3 -4 -4 -4 -2 -1 1 3 5 5 5 3 3 2 2 1 1 1 1 2 2
-2 -2 -2 -2 -2 -1 -1 -1 -1 -1 -1 -1 -1 -1 -0 -0 -0 -0 0 0 0 -0 -0 -1 -1 -2 -2 -2 -1 -1 -0 -0 -1 -1 -1 -1 -1 -1 -1 -1 -1 -1 -2 -2 -3 -3 -3 -3 -4 -4 -5 -4 -3 -1 2 6 7 6 4 2 1 0 -0 -1 -1 -0 0 1 2
-2 -2 -1 -2 -2 -2 -1 -1 -1 -1 -1 -1 -1 -1 -0 -1 -1 -1 -0 0 -0 -0 -0 -1 -1 -1 -2 -2 -1 -1 -1 -0 -0 -1 -1 -1 -1 -1 -1 -1 -1 -1 -1 -2 -3 -3 -3 -3 -5 -5 -5 -4 -2 1 4 7 6 5 3 1 0 -0 -1 -1 -1 -1 -0 0 1
-2 -2 -1 -1 -1 -1 -1 -1 -1 -1 -1 -1 -1 -1 -1 -1 -1 -1 -1 -0 -0 -0 -0 -1 -1 -1 -2 -2 -2 -1 -1 -1 -0 -0 -1 -1 -1 -1 -1 -1 -1 -1 -1 -2 -3 -3 -3 -4 -5 -5 -5 -3 -0 2 5 6 5 4 2 1 1 0 -0 -1 -1 -1 -0 -0 0
-2 -2 -1 -1 -1 -1 -1 -1 -1 -1 -1 -1 -1 -1 -1 -1 -1 -1 -2 -1 -1 -1 -1 -1 -1 -1 -2 -2 -2 -2 -1 -1 -1 -1 -0 -1 -1 -1 -1 -0 -0 -1 -1 -2 -3 -3 -3 -4 -5 -5 -3 -1 1 3 4 5 4 3 2 2 1 1 1 0 0 -0 -0 -0 0
-1 -1 -1 -1 -1 -1 -1 -1 -1 -2 -2 -2 -2 -2 -2 -2 -2 -2 -2 -3 -2 -2 -2 -2 -2 -2 -2 -3 -3 -2 -2 -1 -1 -1 -1 -0 -0 -0 -0 -0 -0 -0 -1 -3 -2 -2 -3 -4 -4 -4 -2 -0 1 2 3 4 4 3 3 2 1 1 1 1 1 0 0 1 1
-1 -1 -1 -1 -1 -1 -1 -1 -1 -1 -2 -2 -2 -2 -2 -2 -2 -3 -3 -4 -4 -3 -3 -2 -2 -2 -2 -2 -3 -3 -2 -1 -1 -1 -1 -0 -0 0 0 0 0 -0 -1 -3 -2 -2 -1 -3 -4 -3 -2 -1 -0 1 2 3 3 3 2 2 1 1 1 1 1 1 1 2 2
-1 -1 -1 -1 -1 -1 -1 -1 -1 -1 -2 -2 -2 -2 -2 -3 -3 -3 -4 -4 -4 -4 -4 -3 -3 -2 -2 -2 -2 -2 -2 -1 -1 -1 -1 -0 -0 0 0 1 0 -1 -1 -3 -2 -1 -1 -2 -3 -3 -2 -1 -0 0 1 1 1 2 2 1 1 1 1 1 1 1 2 2 2
-1 -1 -1 -1 -2 -2 -2 -2 -2 -2 -2 -2 -3 -3 -3 -3 -3 -3 -3 -4 -4 -4 -4 -4 -3 -3 -2 -2 -1 -2 -2 -2 -1 -1 -1 -0 0 1 1 1 1 -0 -2 -2 -1 -0 -0 -2 -3 -3 -2 -1 -1 -1 -1 -0 0 1 2 2 2 2 1 1 1 1 2 3 3
-1 -1 -1 -2 -2 -2 -2 -2 -2 -2 -3 -3 -3 -3 -3 -3 -3 -3 -2 -2 -2 -3 -3 -4 -4 -3 -3 -2 -2 -1 -1 -1 -0 -0 -0 -0 1 1 2 2 1 -0 -1 -2 -1 1 1 -1 -3 -3 -2 -1 -1 -1 -1 -0 1 2 3 3 3 3 2 2 1 2 2 3 3
-1 -1 -1 -2 -2 -2 -2 -2 -3 -3 -3 -4 -3 -3 -3 -2 -2 -2 -1 -1 -1 -2 -2 -3 -3 -3 -3 -3 -2 -2 -2 -1 -0 -0 -0 -0 1 1 2 3 2 1 -1 -2 -0 1 2 0 -2 -3 -3 -2 -2 -1 0 1 2 3 4 4 4 4 2 2 2 2 2 3 3
-1 -2 -2 -2 -2 -2 -3 -3 -3 -3 -3 -3 -3 -2 -1 -1 -1 -0 -0 -0 -0 -1 -1 -1 -2 -2 -3 -3 -3 -3 -2 -2 -0 -0 0 0 1 1 2 3 3 2 0 -1 0 2 3 1 -2 -3 -3 -2 -2 -0 1 2 3 4 4 5 4 3 2 2 2 2 2 3 4
-1 -2 -3 -3 -3 -3 -3 -3 -3 -2 -2 -1 -1 -0 -0 0 0 0 0 0 -0 -0 -0 -1 -1 -1 -2 -2 -2 -2 -2 -1 -0 0 1 1 1 2 3 4 4 3 1 0 1 2 3 2 -0 -1 -2 -3 -2 -0 1 2 3 4 5 5 3 2 2 2 2 3 3 4 5
-2 -3 -4 -4 -4 -3 -3 -2 -1 -0 0 1 1 1 1 0 0 0 0 -0 -0 -0 -0 0 -0 -0 -0 -1 -1 -1 -1 -1 0 1 2 2 2 3 3 4 4 4 3 2 2 2 2 2 2 1 -1 -3 -2 -0 2 3 4 5 5 4 3 2 2 2 2 3 4 5 5
-2 -3 -3 -3 -3 -2 -1 0 1 2 2 2 1 1 0 -0 -0 -0 -0 -0 -0 -0 0 1 1 1 1 1 0 -0 -1 -0 1 2 3 4 4 4 4 5 5 5 4 3 2 2 2 3 4 3 0 -3 -3 -1 1 4 5 5 5 4 3 2 2 2 3 4 4 5 4
-3 -2 -2 -1 -0 1 2 3 3 2 2 1 1 -0 -0 -1 -1 -1 -1 -0 -0 -0 0 1 1 1 1 1 1 1 0 -0 1 2 4 5 5 5 5 5 6 6 5 4 3 2 3 4 4 4 2 -1 -3 -2 1 3 4 5 5 4 2 2 2 2 4 4 5 4 4
-1 -0 1 1 2 3 3 3 2 1 0 -0 -1 -1 -2 -2 -1 -1 -0 -0 -0 -0 0 0 1 1 1 1 1 1 1 1 2 3 4 5 5 6 6 6 6 6 5 4 4 3 3 4 4 5 4 -0 -3 -2 1 4 5 5 4 3 2 1 2 3 4 5 4 4 4
1 1 2 2 2 2 1 0 -0 -1 -2 -2 -3 -3 -2 -2 -1 -0 0 0 -0 -1 -1 -1 -1 -1 -1 -1 -1 0 1 1 2 3 4 5 6 6 6 7 7 6 6 5 4 4 4 4 4 5 4 1 -1 0 3 5 6 5 3 2 1 1 1 3 4 4 4 4 4
2 2 1 1 -0 -1 -1 -1 -2 -3 -4 -4 -4 -3 -2 -1 -1 -0 -0 -1 -1 -1 -1 -0 -1 -2 -2 -2 -2 -1 -0 1 2 3 4 5 6 6 6 7 7 6 6 5 5 4 4 4 5 5 3 0 1 3 6 6 6 5 3 1 0 0 1 2 4 5 5 4 4
1 -0 -1 -1 -2 -2 -2 -3 -3 -4 -4 -4 -3 -2 -1 -1 -1 -1 -1 -1 -1 -1 -1 0 0 -0 -1 -1 -1 -0 -0 0 1 2 4 5 5 6 6 6 6 6 6 6 5 4 3 3 4 4 2 1 3 5 6 6 6 5 3 1 -0 -1 -1 1 4 5 5 4 4
-1 -1 -2 -3 -3 -3 -3 -3 -3 -3 -3 -2 -2 -1 -1 -0 0 0 0 -1 -1 -2 -2 -2 -1 -1 -1 -1 -0 -0 0 0 1 2 3 4 5 6 6 6 6 6 6 5 5 4 3 3 4 4 4 3 4 5 5 5 6 5 4 2 -1 -2 -2 0 3 4 4 4 3
-1 -2 -3 -3 -3 -4 -4 -3 -2 -2 -1 -1 -1 -1 -1 -1 -0 1 1 -0 -1 -1 -1 -1 -2 -2 -3 -2 -1 -0 0 0 1 2 3 4 4 5 6 6 6 6 5 5 5 4 4 4 5 5 4 3 4 4 4 5 5 5 5 3 -1 -3 -4 -2 1 4 4 3 3
-1 -2 -3 -4 -4 -4 -4 -2 -1 -0 -0 -0 -0 -1 -0 -0 -0 -0 0 0 -1 -1 -1 -0 -0 -1 -2 -2 -1 -1 -0 0 1 2 3 3 4 5 5 6 5 5 5 5 5 5 5 5 6 5 4 1 2 2 3 4 5 6 6 4 -0 -4 -5 -4 -0 2 4 4 4
-2 -3 -3 -4 -4 -4 -2 -1 -0 -0 -0 -0 -0 0 0 0 1 1 2 1 0 -0 -1 -1 -0 -0 -1 -2 -1 -1 -0 0 1 1 2 3 4 4 5 5 4 4 5 5 6 6 5 5 5 4 2 -0 -0 1 2 3 5 6 6 5 0 -4 -6 -6 -3 0 3 3 3
-3 -3 -3 -4 -3 -2 -1 -0 -0 -0 -0 0 1 1 1 0 0 1 2 2 1 1 0 -0 -0 -0 -1 -1 -1 -1 -0 0 1 1 2 2 3 4 4 4 3 4 4 6 6 6 6 5 4 2 0 -1 -0 1 3 4 5 5 6 6 1 -4 -8 -9 -4 0 4 4 2
-3 -3 -3 -2 -2 -1 -1 -1 -1 -1 -0 1 2 2 1 0 -0 -0 -0 1 0 -0 -0 -0 -0 -0 -0 -1 -1 -1 -0 0 1 1 2 2 3 3 3 3 2 3 4 5 6 6 5 5 4 2 0 -0 2 4 5 5 5 5 5 5 2 -4 -8 -10 -3 3 7 6 4
-3 -3 -2 -1 -0 -0 -1 -2 -2 -1 0 2 3 3 2 1 -0 -1 -1 -1 -1 -1 -2 -2 -2 -1 -0 -0 -1 -0 -0 0 1 1 2 2 2 3 3 2 2 2 4 5 5 5 5 5 4 2 0 0 3 6 6 6 5 5 5 4 1 -4 -8 -8 -0 5 7 6 4
-2 -2 -1 -0 0 -0 -1 -2 -2 -1 1 2 2 2 1 -0 -1 -2 -2 -2 -1 -2 -3 -4 -3 -2 -0 0 -0 -0 -0 0 1 1 1 2 2 2 2 1 1 2 3 4 4 5 6 6 5 2 -1 -0 3 4 5 4 4 4 3 2 -1 -4 -6 -5 -0 3 4 3 2
-1 -0 -0 0 -0 -1 -2 -2 -1 0 2 2 1 1 0 -0 -0 -1 -2 -2 -2 -3 -3 -4 -3 -2 -1 0 0 0 0 0 0 1 1 2 2 2 1 1 1 1 3 4 5 5 5 6 4 1 -1 -0 2 2 2 2 2 2 1 0 -1 -3 -4 -4 -1 1 2 1 0
-1 -0 -0 -1 -2 -2 -2 -1 0 1 2 1 0 0 0 1 0 -0 -1 -2 -2 -2 -2 -2 -2 -2 -1 0 0 0 0 0 0 1 1 1 2 1 1 1 1 1 2 4 5 3 2 3 3 1 -1 -1 0 1 1 1 1 0 -0 -1 -1 -2 -3 -3 -1 1 2 2 0
Height
5518 5515 5512 5510 5507 5504 5501 5498 5495 5493 5490 5487 5485 5482 5480 5477 5475 5472 5470 5468 5466 5464 5462 5460 5458 5456 5455 5453 5451 5450 5448 5446 5445 5444 5443 5441 5440 5440 5439 5438 5437 5437 5436 5435 5435 5435 5435 5435 5435 5436 5436 5437 5437 5438 5439 5440 5441 5443 5444 5446 5447 5448 5450 5451 5452 5452 5453 5454 5455
5515 5513 5510 5507 5504 5501 5498 5495 5492 5489 5486 5484 5481 5478 5476 5474 5471 5469 5467 5465 5463 5461 5459 5457 5455 5453 5451 5449 5447 5446 5444 5443 5441 5440 5439 5437 5436 5435 5435 5434 5433 5432 5432 5431 5431 5430 5430 5430 5431 5431 5432 5432 5433 5434 5434 5435 5437 5438 5440 5441 5442 5444 5445 5446 5447 5448 5449 5450 5450
5513 5510 5507 5504 5500 5498 5495 5492 5489 5486 5483 5480 5478 5475 5473 5470 5468 5466 5464 5462 5460 5457 5455 5454 5452 5450 5448 5446 5444 5442 5440 5439 5437 5436 5435 5433 5432 5431 5430 5430 5429 5428 5428 5427 5426 5426 5426 5426 5426 5427 5427 5428 5429 5429 5430 5430 5432 5433 5435 5436 5438 5439 5440 5442 5443 5444 5445 5446 5447
5510 5507 5504 5500 5497 5495 5491 5489 5485 5483 5480 5477 5475 5472 5470 5467 5465 5463 5461 5459 5456 5454 5452 5450 5448 5446 5445 5442 5440 5439 5437 5435 5433 5432 5430 5429 5428 5427 5426 5425 5424 5424 5423 5422 5422 5422 5422 5422 5422 5423 5423 5423 5424 5425 5425 5426 5427 5428 5430 5431 5433 5435 5436 5437 5439 5440 5441 5442 5443
5507 5504 5501 5498 5495 5491 5488 5485 5482 5480 5477 5474 5471 5469 5467 5465 5462 5460 5458 5456 5454 5451 5449 5447 5445 5443 5441 5439 5437 5435 5434 5432 5430 5428 5426 5425 5424 5422 5421 5420 5420 5419 5418 5418 5418 5417 5417 5418 5418 5418 5419 5419 5420 5420 5420 5421 5422 5424 5425 5427 5428 5430 5431 5433 5434 5435 5437 5438 5439
5504 5501 5498 5495 5491 5488 5485 5482 5479 5476 5474 5471 5469 5466 5464 5462 5460 5457 5455 5453 5451 5449 5446 5444 5442 5440 5438 5436 5434 5432 5430 5428 5426 5425 5423 5421 5420 5418 5417 5416 5415 5414 5414 5413 5413 5413 5413 5413 5413 5414 5414 5415 5415 5415 5416 5417 5418 5419 5421 5422 5424 5425 5427 5429 5430 5431 5433 5434 5435
5501 5498 5494 5491 5488 5485 5482 5479 5476 5473 5470 5468 5466 5463 5461 5459 5457 5455 5452 5450 5448 5446 5444 5441 5439 5437 5435 5433 5431 5429 5427 5425 5423 5421 5420 5418 5416 5415 5413 5412 5411 5410 5409 5408 5408 5408 5408 5408 5409 5409 5410 5410 5411 5411 5412 5413 5414 5415 5416 5418 5419 5421 5423 5424 5426 5427 5429 5430 5431
5498 5495 5491 5488 5485 5482 5479 5476 5473 5470 5468 5465 5463 5460 5458 5456 5454 5452 5450 5447 5445 5443 5440 5439 5436 5434 5432 5430 5428 5426 5424 5422 5420 5418 5416 5414 5413 5411 5409 5408 5406 5405 5404 5404 5403 5403 5403 5404 5404 5405 5405 5406 5406 5407 5408 5409 5410 5411 5412 5414 5415 5416 5418 5420 5421 5423 5425 5426 5427
5495 5492 5488 5485 5482 5479 5476 5473 5470 5468 5465 5463 5460 5458 5455 5453 5451 5449 5447 5445 5442 5440 5438 5435 5433 5431 5429 5427 5425 5423 5421 5419 5417 5415 5413 5411 5409 5407 5406 5404 5403 5401 5400 5399 5399 5398 5398 5399 5400 5400 5400 5401 5402 5403 5403 5404 5405 5407 5408 5410 5411 5412 5414 5415 5417 5419 5420 5422 5424
5492 5489 5485 5482 5479 5476 5473 5470 5468 5465 5462 5460 5458 5455 5453 5451 5449 5446 5444 5442 5439 5437 5435 5432 5430 5428 5426 5424 5422 5420 5418 5416 5414 5412 5410 5408 5406 5404 5402 5400 5399 5397 5396 5395 5394 5394 5394 5394 5395 5395 5396 5396 5397 5398 5399 5400 5401 5403 5404 5405 5407 5408 5410 5411 5413 5415 5416 5418 5420
5489 5486 5482 5479 5476 5473 5470 5468 5465 5463 5460 5458 5455 5453 5450 5448 5446 5444 5441 5439 5436 5434 5431 5429 5427 5425 5423 5421 5419 5417 5415 5413 5410 5409 5407 5405 5403 5401 5399 5397 5395 5394 5392 5391 5390 5390 5389 5390 5390 5390 5391 5392 5393 5394 5395 5396 5398 5399 5400 5401 5403 5404 5405 5407 5408 5410 5412 5414 5415
5486 5483 5480 5477 5474 5471 5468 5465 5463 5460 5458 5455 5453 5450 5448 5445 5443 5441 5438 5436 5434 5431 5429 5426 5424 5422 5420 5418 5415 5413 5411 5409 5407 5405 5403 5401 5400 5398 5396 5394 5392 5390 5388 5387 5386 5385 5385 5385 5385 5385 5386 5387 5388 5390 5391 5393 5394 5395 5396 5397 5398 5399 5400 5402 5404 5406 5408 5410 5411
5483 5480 5477 5474 5471 5468 5466 5463 5460 5458 5455 5453 5450 5448 5445 5443 5440 5438 5435 5433 5430 5428 5425 5423 5420 5418 5416 5414 5412 5410 5408 5406 5404 5402 5400 5398 5396 5395 5393 5390 5388 5386 5385 5383 5382 5381 5381 5380 5380 5381 5382 5383 5384 5386 5388 5389 5390 5391 5391 5392 5393 5394 5396 5397 5400 5402 5404 5405 5407
5480 5477 5475 5471 5469 5466 5463 5461 5458 5455 5453 5450 5448 5445 5443 5440 5437 5435 5432 5430 5427 5425 5422 5420 5417 5415 5413 5410 5409 5406 5405 5402 5400 5398 5396 5395 5393 5391 5389 5387 5385 5383 5381 5379 5378 5377 5376 5376 5376 5376 5377 5379 5380 5382 5384 5385 5385 5386 5386 5387 5389 5390 5391 5393 5395 5397 5400 5401 5403
5478 5475 5472 5469 5466 5464 5461 5459 5456 5453 5450 5448 5445 5442 5440 5437 5434 5432 5429 5427 5424 5421 5419 5416 5414 5411 5409 5407 5405 5403 5401 5399 5397 5395 5393 5391 5389 5387 5386 5384 5382 5380 5378 5376 5374 5373 5372 5372 5372 5373 5374 5375 5377 5378 5379 5380 5381 5381 5382 5383 5385 5386 5387 5389 5391 5393 5395 5397 5400
5476 5473 5470 5467 5464 5461 5459 5456 5453 5451 5448 5445 5442 5439 5436 5434 5431 5428 5426 5423 5421 5418 5416 5413 5410 5408 5406 5403 5401 5399 5397 5395 5393 5391 5389 5387 5385 5384 5382 5380 5378 5376 5374 5372 5371 5370 5369 5368 5368 5369 5370 5371 5372 5374 5375 5375 5376 5377 5378 5379 5380 5382 5384 5385 5388 5390 5391 5394 5396
5474 5470 5468 5465 5462 5459 5456 5454 5451 5448 5445 5442 5439 5436 5433 5430 5428 5425 5422 5420 5417 5415 5412 5410 5407 5405 5402 5400 5397 5395 5393 5391 5389 5387 5385 5383 5382 5380 5378 5376 5375 5373 5370 5369 5367 5366 5365 5365 5364 5365 5365 5367 5368 5369 5370 5371 5372 5373 5374 5375 5376 5378 5380 5382 5384 5385 5388 5390 5392
5471 5469 5465 5463 5460 5457 5454 5451 5448 5445 5442 5439 5436 5433 5430 5427 5424 5421 5419 5416 5413 5411 5408 5406 5403 5401 5398 5395 5393 5391 5389 5387 5385 5383 5381 5379 5378 5376 5374 5372 5371 5369 5367 5365 5364 5363 5362 5361 5360 5360 5361 5362 5363 5364 5365 5366 5367 5369 5370 5371 5372 5374 5375 5377 5380 5381 5384 5386 5389
5470 5466 5464 5461 5458 5455 5452 5449 5446 5443 5440 5436 5433 5430 5427 5424 5421 5418 5415 5412 5409 5406 5404 5401 5399 5396 5394 5391 5389 5386 5384 5382 5380 5378 5376 5375 5373 5371 5370 5368 5366 5365 5363 5361 5360 5359 5358 5357 5356 5356 5357 5358 5360 5360 5361 5362 5363 5365 5366 5367 5369 5370 5372 5374 5375 5378 5380 5382 5385
5468 5465 5461 5459 5455 5453 5450 5446 5443 5440 5437 5434 5430 5427 5424 5420 5417 5414 5411 5408 5405 5402 5400 5397 5394 5392 5389 5387 5384 5382 5379 5377 5375 5373 5371 5370 5368 5367 5365 5364 5362 5360 5359 5357 5356 5355 5355 5353 5353 5352 5353 5355 5356 5356 5357 5358 5359 5361 5362 5364 5365 5367 5368 5370 5372 5374 5376 5379 5381
5466 5463 5460 5456 5453 5450 5447 5444 5440 5437 5434 5430 5427 5424 5420 5417 5414 5410 5407 5404 5401 5398 5395 5392 5389 5386 5384 5381 5379 5376 5374 5372 5370 5368 5366 5365 5363 5361 5360 5359 5357 5355 5354 5353 5352 5352 5351 5350 5349 5349 5350 5352 5352 5352 5353 5355 5356 5358 5360 5361 5362 5363 5365 5366 5368 5370 5372 5375 5377
5464 5460 5457 5454 5451 5448 5445 5441 5438 5435 5431 5428 5424 5421 5417 5414 5410 5407 5404 5400 5397 5393 5390 5387 5383 5380 5377 5375 5372 5370 5368 5365 5364 5361 5360 5358 5357 5356 5355 5353 5352 5351 5350 5349 5348 5348 5347 5346 5345 5346 5347 5347 5348 5349 5350 5351 5353 5354 5356 5357 5359 5360 5361 5362 5364 5366 5369 5371 5374
5462 5459 5455 5452 5449 5445 5442 5439 5435 5432 5428 5425 5421 5418 5414 5410 5407 5403 5400 5396 5392 5389 5385 5381 5378 5375 5371 5368 5365 5363 5360 5359 5357 5355 5353 5351 5350 5349 5349 5348 5347 5345 5345 5344 5344 5344 5343 5343 5342 5343 5344 5343 5344 5345 5346 5348 5349 5351 5352 5353 5355 5356 5357 5359 5361 5363 5365 5368 5371
5460 5457 5453 5450 5447 5443 5440 5436 5433 5429 5425 5422 5418 5415 5411 5407 5404 5400 5396 5392 5388 5384 5380 5376 5372 5369 5365 5361 5358 5355 5353 5351 5349 5347 5346 5344 5343 5342 5342 5341 5341 5340 5339 5339 5339 5339 5339 5339 5339 5340 5341 5340 5340 5341 5343 5345 5346 5347 5349 5350 5351 5352 5354 5355 5358 5360 5362 5365 5367
5458 5455 5451 5448 5444 5441 5437 5434 5430 5427 5423 5420 5416 5412 5408 5404 5400 5396 5392 5388 5384 5379 5375 5371 5366 5362 5359 5355 5351 5348 5345 5342 5340 5339 5338 5336 5335 5335 5335 5335 5335 5335 5334 5334 5335 5335 5335 5336 5336 5338 5338 5337 5337 5338 5340 5341 5343 5344 5345 5346 5347 5349 5350 5352 5354 5357 5359 5361 5364
5456 5453 5450 5446 5442 5439 5435 5432 5428 5425 5421 5417 5413 5409 5405 5401 5396 5392 5388 5383 5379 5374 5370 5365 5360 5356 5352 5348 5344 5340 5336 5333 5331 5330 5329 5328 5328 5327 5328 5328 5328 5329 5329 5329 5330 5330 5331 5332 5333 5335 5336 5335 5334 5335 5336 5338 5340 5341 5342 5343 5344 5345 5347 5349 5351 5354 5356 5358 5360
5455 5451 5448 5445 5441 5437 5434 5430 5426 5423 5419 5415 5410 5406 5402 5397 5393 5388 5383 5378 5374 5369 5364 5359 5354 5350 5345 5340 5335 5331 5327 5324 5322 5320 5320 5320 5320 5320 5320 5321 5322 5323 5324 5325 5325 5326 5327 5329 5330 5331 5333 5333 5331 5331 5333 5335 5336 5338 5339 5340 5341 5342 5344 5346 5348 5350 5352 5355 5358
5453 5450 5447 5443 5440 5436 5432 5428 5425 5420 5416 5412 5407 5403 5398 5393 5389 5384 5379 5373 5368 5363 5358 5353 5347 5342 5337 5332 5327 5322 5318 5315 5313 5311 5311 5311 5311 5312 5314 5315 5316 5318 5319 5320 5321 5322 5323 5325 5326 5328 5330 5330 5329 5329 5331 5333 5334 5335 5335 5336 5337 5339 5341 5343 5345 5347 5349 5352 5355
5452 5449 5445 5442 5438 5435 5430 5426 5422 5418 5413 5409 5404 5399 5395 5390 5385 5379 5374 5368 5363 5357 5351 5346 5340 5334 5329 5323 5318 5313 5309 5306 5304 5303 5303 5303 5304 5306 5307 5309 5311 5313 5314 5316 5317 5318 5320 5321 5323 5325 5326 5326 5325 5326 5329 5330 5331 5332 5333 5333 5334 5336 5338 5340 5342 5344 5346 5349 5352
5451 5448 5444 5440 5436 5432 5428 5424 5419 5415 5410 5405 5401 5396 5391 5385 5380 5375 5369 5363 5357 5351 5345 5339 5333 5326 5320 5315 5309 5305 5301 5298 5296 5295 5296 5297 5298 5300 5302 5304 5306 5308 5310 5312 5313 5315 5316 5318 5319 5322 5324 5322 5323 5325 5326 5328 5329 5330 5330 5330 5331 5333 5334 5336 5339 5341 5344 5346 5349
5450 5446 5442 5438 5434 5430 5425 5421 5417 5412 5407 5402 5397 5392 5387 5381 5376 5370 5364 5357 5351 5345 5339 5332 5326 5319 5313 5307 5302 5298 5295 5292 5290 5290 5290 5291 5293 5295 5297 5300 5302 5304 5306 5308 5310 5311 5313 5315 5316 5319 5321 5320 5321 5322 5324 5325 5327 5328 5328 5328 5329 5330 5330 5333 5336 5339 5341 5343 5345
5448 5444 5440 5436 5432 5428 5423 5419 5414 5410 5405 5400 5394 5389 5383 5378 5372 5365 5359 5352 5345 5339 5332 5326 5319 5313 5307 5302 5297 5293 5290 5288 5286 5286 5286 5287 5289 5291 5294 5296 5298 5301 5303 5305 5307 5309 5310 5312 5313 5315 5317 5317 5319 5320 5321 5323 5325 5326 5326 5326 5326 5327 5328 5330 5334 5336 5338 5340 5342
5447 5443 5439 5434 5430 5426 5421 5417 5412 5407 5402 5397 5391 5386 5380 5374 5368 5361 5355 5348 5340 5334 5327 5320 5313 5307 5302 5297 5293 5290 5287 5285 5283 5283 5283 5285 5286 5289 5291 5294 5296 5298 5300 5303 5305 5306 5308 5310 5311 5313 5314 5315 5316 5317 5319 5320 5322 5324 5325 5325 5325 5325 5325 5327 5331 5333 5335 5337 5340
5445 5441 5437 5433 5428 5424 5419 5415 5410 5405 5400 5395 5389 5383 5377 5370 5364 5357 5351 5344 5336 5329 5322 5315 5309 5303 5298 5294 5290 5287 5285 5283 5281 5281 5282 5283 5285 5287 5289 5291 5294 5296 5298 5301 5303 5305 5306 5308 5309 5311 5312 5312 5313 5315 5316 5318 5320 5322 5323 5323 5323 5322 5323 5324 5327 5330 5332 5335 5338
5444 5440 5435 5431 5427 5422 5418 5413 5408 5403 5398 5392 5386 5380 5374 5368 5361 5355 5348 5340 5333 5325 5318 5312 5306 5300 5295 5291 5288 5285 5283 5281 5280 5280 5281 5282 5284 5286 5288 5290 5292 5295 5297 5300 5301 5303 5305 5306 5307 5308 5309 5310 5310 5312 5315 5316 5318 5320 5321 5322 5321 5320 5320 5321 5325 5328 5331 5333 5335
5443 5439 5434 5430 5425 5421 5416 5411 5407 5402 5396 5390 5384 5378 5371 5365 5358 5351 5345 5337 5330 5322 5315 5309 5304 5299 5294 5290 5287 5285 5283 5281 5280 5280 5281 5282 5284 5285 5287 5289 5291 5293 5296 5298 5300 5302 5304 5306 5306 5307 5308 5307 5309 5311 5313 5315 5316 5318 5319 5320 5320 5318 5317 5318 5323 5328 5331 5332 5333
5442 5437 5433 5429 5424 5420 5415 5410 5405 5400 5395 5389 5382 5376 5369 5363 5356 5349 5341 5334 5327 5320 5313 5307 5302 5297 5293 5290 5287 5285 5283 5281 5281 5281 5281 5282 5284 5285 5287 5289 5290 5293 5295 5297 5299 5301 5304 5306 5307 5307 5306 5305 5308 5310 5312 5313 5314 5315 5317 5317 5317 5316 5315 5316 5320 5325 5330 5332 5333
5440 5436 5432 5428 5423 5419 5414 5409 5404 5399 5393 5387 5381 5374 5368 5361 5354 5346 5339 5331 5324 5317 5310 5305 5300 5296 5293 5290 5287 5285 5283 5282 5281 5282 5282 5283 5284 5286 5287 5289 5290 5292 5295 5296 5298 5300 5303 5306 5307 5306 5304 5305 5307 5309 5310 5311 5312 5313 5314 5315 5315 5315 5314 5315 5319 5322 5325 5328 5330
5440 5435 5431 5427 5422 5418 5413 5408 5402 5397 5391 5385 5379 5373 5366 5359 5351 5344 5336 5328 5321 5314 5308 5303 5299 5295 5292 5290 5287 5285 5284 5283 5282 5283 5283 5284 5285 5286 5288 5289 5290 5292 5294 5296 5298 5300 5303 5305 5305 5303 5302 5303 5305 5307 5308 5309 5310 5311 5312 5313 5313 5313 5313 5315 5317 5320 5322 5324 5327
5440 5435 5431 5426 5422 5417 5412 5407 5401 5396 5390 5384 5378 5371 5365 5357 5350 5342 5334 5327 5319 5313 5307 5302 5298 5295 5292 5290 5288 5286 5285 5284 5283 5284 5284 5285 5286 5287 5288 5289 5290 5292 5294 5295 5297 5300 5302 5303 5303 5302 5302 5302 5303 5305 5306 5307 5308 5309 5310 5310 5311 5311 5312 5313 5315 5317 5320 5322 5324
5439 5435 5430 5426 5421 5416 5411 5406 5401 5395 5390 5383 5377 5370 5364 5356 5349 5341 5333 5326 5319 5312 5307 5302 5298 5295 5292 5290 5288 5286 5285 5285 5285 5285 5285 5285 5286 5288 5289 5289 5290 5292 5294 5295 5297 5299 5300 5299 5300 5301 5301 5300 5302 5303 5304 5305 5306 5307 5308 5309 5309 5310 5310 5311 5313 5316 5318 5320 5322